カタログに戻る

STARLINK-3419

運用中通信VLEO
NORAD 51463·PAYLOAD·🇺🇸 United States

打ち上げ Feb 3, 2022 から Cape Canaveral Space Force Station

Loading…

次のパス (今後24時間)

TLE

最新Source: CelesTrak SupGP

元期: Sep 14, 2026, 22:07 UTC

1 51463C 22010H   26257.92201389 -.00014374  00000+0 -46236-3 0  2571
2 51463  53.1566 135.1905 0001127  85.5420 167.2160 15.31700253    17

AllMySatでSTARLINK-3419をリアルタイム追跡

Download on the App Store